Weather History for Kalamazoo, MI

Change the Weather History Date:

Wednesday, September 5, 2012

  Actual Average Record
Temperature  
Mean Temperature 75 °F 67 °F  
Max Temperature 84 °F 77 °F 95 °F (1954)
Min Temperature 66 °F 56 °F 43 °F (1950)
Degree Days  
Heating Degree Days 0 2  
Month to date heating degree days 0 6  
Since 1 July heating degree days 10 22  
Cooling Degree Days 10 3  
Month to date cooling degree days 58 18  
Year to date cooling degree days 1025 629  
Growing Degree Days 24 (Base 50)    
Moisture  
Dew Point 66 °F    
Average Humidity 76    
Maximum Humidity 100    
Minimum Humidity 51    
Precipitation  
Precipitation 0.00 in 0.15 in 1.00 in (1949)
Month to date precipitation 0.21 0.78  
Year to date precipitation 18.02 24.37  
Sea Level Pressure  
Sea Level Pressure 29.84 in    
Wind  
Wind Speed 5 mph (SW)    
Max Wind Speed 16 mph    
Max Gust Speed 24 mph    
Visibility 9 miles    
Events      
T = Trace of Precipitation, MM = Missing Value Source: NWS Daily Summary

Daily Weather History Graph

Daily Weather History Graph

Search for Another Location

Airport:

Trip Planner

Search our weather history database for the weather conditions in past years. The results will help you decide how hot, cold, wet, or windy it might be!

Date:

Astronomy

Sep. 05, 2012 Rise Set
Actual Time 7:12 AM EDT 8:08 PM EDT
Civil Twilight 6:43 AM EDT 8:36 PM EDT
Nautical Twilight 6:09 AM EDT 9:10 PM EDT
Astronomical Twilight 5:34 AM EDT 9:46 PM EDT
Moon 10:30 PM EDT (9/5) 12:22 PM EDT (9/5)
Length of Visible Light 13h 53m
Length of Day
12h 56m
Waning Gibbous, 76% of the Moon is Illuminated
Sep 5
Waning Gibbous
Sep 8
Last Quarter
Sep 15
New
Sep 22
First Quarter
Sep 29
Full

Hourly Weather History & Observations

Time (EDT) Temp. Heat Index Dew Point Humidity Pressure Visibility Wind Dir Wind Speed Gust Speed Precip Events Conditions
12:53 AM 69.1 °F - 66.9 °F 93% 29.87 in 6.0 mi ESE 3.5 mph - N/A   Clear
1:53 AM 70.0 °F - 68.0 °F 93% 29.87 in 10.0 mi Calm Calm - N/A   Clear
2:53 AM 70.0 °F - 68.0 °F 93% 29.89 in 10.0 mi Calm Calm - N/A   Scattered Clouds
3:53 AM 71.1 °F - 66.9 °F 87% 29.87 in 10.0 mi WNW 3.5 mph - N/A   Clear
4:53 AM 69.1 °F - 66.9 °F 93% 29.84 in 8.0 mi Calm Calm - N/A   Partly Cloudy
5:53 AM 70.0 °F - 66.9 °F 90% 29.84 in 8.0 mi Calm Calm - N/A   Mostly Cloudy
6:53 AM 68.0 °F - 66.9 °F 96% 29.85 in 4.0 mi Calm Calm - N/A   Scattered Clouds
7:53 AM 66.9 °F - 66.9 °F 100% 29.86 in 3.0 mi South 4.6 mph - N/A   Scattered Clouds
8:53 AM 70.0 °F - 68.0 °F 93% 29.87 in 4.0 mi South 6.9 mph - N/A   Scattered Clouds
9:53 AM 73.9 °F - 69.1 °F 85% 29.86 in 9.0 mi South 8.1 mph - N/A   Scattered Clouds
10:41 AM 73.4 °F - 68.0 °F 83% 29.90 in 10.0 mi West 15.0 mph 20.7 mph N/A   Overcast
10:53 AM 73.0 °F - 66.9 °F 81% 29.88 in 10.0 mi West 10.4 mph 20.7 mph N/A   Overcast
11:25 AM 75.2 °F - 66.2 °F 73% 29.87 in 10.0 mi NW 6.9 mph - N/A   Mostly Cloudy
11:53 AM 75.9 °F - 64.9 °F 69% 29.83 in 10.0 mi NNW 4.6 mph - N/A   Clear
12:53 PM 79.0 °F - 62.1 °F 56% 29.79 in 10.0 mi East 5.8 mph - N/A   Clear
1:53 PM 81.0 °F 82.2 °F 63.0 °F 54% 29.79 in 10.0 mi Variable 6.9 mph - N/A   Clear
2:53 PM 82.0 °F 83.1 °F 63.0 °F 52% 29.80 in 10.0 mi South 10.4 mph - N/A   Clear
3:53 PM 82.9 °F 84.6 °F 64.9 °F 54% 29.79 in 10.0 mi SSW 10.4 mph - N/A   Clear
4:53 PM 82.0 °F 83.8 °F 64.9 °F 56% 29.78 in 10.0 mi SSW 11.5 mph - N/A   Clear
5:53 PM 81.0 °F 82.7 °F 64.9 °F 58% 29.79 in 10.0 mi SSW 11.5 mph 24.2 mph N/A   Clear
6:53 PM 80.1 °F 81.7 °F 64.0 °F 58% 29.80 in 10.0 mi SW 9.2 mph - N/A   Clear
7:53 PM 78.1 °F - 64.9 °F 64% 29.81 in 10.0 mi WSW 4.6 mph - N/A   Clear
8:53 PM 72.0 °F - 64.9 °F 78% 29.82 in 10.0 mi SSW 5.8 mph - N/A   Clear
9:53 PM 71.1 °F - 64.9 °F 81% 29.83 in 10.0 mi SW 3.5 mph - N/A   Clear
10:53 PM 71.1 °F - 64.9 °F 81% 29.83 in 10.0 mi SW 4.6 mph - N/A   Clear
11:53 PM 69.1 °F - 64.9 °F 87% 29.83 in 10.0 mi SW 3.5 mph - N/A   Clear